NKS982 KBNA-KFLL

Flight info

Callsign NKS982
Flight time 1h 50m
Altitude 37000
Route FLAME4 GENDE ACORI TEEKY4
Aircraft A320/M-VGDW/C

Departure

Time 2026-05-03 20:48
Airport Nashville International Airport (KBNA)

Arrival

Time 2026-05-03 22:39
Airport Fort Lauderdale Hollywood International Airport (KFLL)
Time Latitude Longitude Altitude Speed Heading
2026-05-03 20:29 36.12618 -86.67118 569 ft 0 kts 221°
2026-05-03 20:31 36.12618 -86.67117 569 ft 0 kts 221°
2026-05-03 20:37 36.12626 -86.67108 569 ft 3 kts 221°
2026-05-03 20:37 36.12640 -86.67094 569 ft 3 kts 221°
2026-05-03 20:38 36.12654 -86.67079 569 ft 3 kts 240°
2026-05-03 20:38 36.12659 -86.67058 569 ft 3 kts 280°
2026-05-03 20:38 36.12656 -86.67045 569 ft 0 kts 310°
2026-05-03 20:41 36.12667 -86.67060 575 ft 6 kts 313°
2026-05-03 20:42 36.12700 -86.67106 571 ft 8 kts 311°
2026-05-03 20:42 36.12740 -86.67164 572 ft 10 kts 310°
2026-05-03 20:42 36.12790 -86.67235 571 ft 10 kts 312°
2026-05-03 20:42 36.12820 -86.67309 571 ft 8 kts 255°
2026-05-03 20:43 36.12807 -86.67328 571 ft 0 kts 221°
2026-05-03 20:45 36.12788 -86.67350 572 ft 8 kts 222°
2026-05-03 20:45 36.12736 -86.67408 577 ft 11 kts 222°
2026-05-03 20:45 36.12670 -86.67463 579 ft 13 kts 210°
2026-05-03 20:46 36.12588 -86.67523 579 ft 14 kts 218°
2026-05-03 20:46 36.12513 -86.67608 580 ft 15 kts 225°
2026-05-03 20:46 36.12438 -86.67676 580 ft 14 kts 199°
2026-05-03 20:46 36.12356 -86.67716 579 ft 9 kts 229°
2026-05-03 20:47 36.12369 -86.67802 578 ft 12 kts 289°
2026-05-03 20:47 36.12400 -86.67916 576 ft 15 kts 288°
2026-05-03 20:47 36.12377 -86.67979 582 ft 10 kts 198°
2026-05-03 20:47 36.12219 -86.68043 575 ft 56 kts 198°
2026-05-03 20:48 36.11610 -86.68286 577 ft 124 kts 198°
2026-05-03 20:48 36.10639 -86.68674 720 ft 162 kts 198°
2026-05-03 20:48 36.09587 -86.69065 1580 ft 155 kts 197°
2026-05-03 20:48 36.08499 -86.69465 2037 ft 175 kts 198°
2026-05-03 20:49 36.07259 -86.69940 2342 ft 196 kts 198°
2026-05-03 20:49 36.05885 -86.70463 2592 ft 220 kts 198°
2026-05-03 20:49 36.04333 -86.71054 3039 ft 244 kts 198°
2026-05-03 20:49 36.02656 -86.71690 3808 ft 257 kts 198°
2026-05-03 20:50 36.00928 -86.72340 4726 ft 263 kts 198°
2026-05-03 20:50 35.99170 -86.73002 5668 ft 265 kts 198°
2026-05-03 20:50 35.97391 -86.73674 6544 ft 270 kts 198°
2026-05-03 20:50 35.95584 -86.74362 7399 ft 273 kts 198°
2026-05-03 20:51 35.93703 -86.74821 8228 ft 280 kts 185°
2026-05-03 20:51 35.91743 -86.74956 9053 ft 285 kts 185°
2026-05-03 20:51 35.89748 -86.75092 9860 ft 289 kts 185°
2026-05-03 20:51 35.87703 -86.75237 10427 ft 304 kts 185°
2026-05-03 20:52 35.85517 -86.75398 10688 ft 326 kts 186°
2026-05-03 20:52 35.83176 -86.75573 10954 ft 346 kts 186°
2026-05-03 20:52 35.80739 -86.75747 11481 ft 355 kts 186°
2026-05-03 20:52 35.78251 -86.75919 12111 ft 361 kts 186°
2026-05-03 20:53 35.75729 -86.76090 12733 ft 365 kts 186°
2026-05-03 20:53 35.73175 -86.76264 13360 ft 369 kts 186°
2026-05-03 20:53 35.70600 -86.76442 14009 ft 372 kts 186°
2026-05-03 20:53 35.68004 -86.76624 14657 ft 375 kts 186°
2026-05-03 20:54 35.65389 -86.76809 15264 ft 378 kts 187°
2026-05-03 20:54 35.60095 -86.77182 16435 ft 384 kts 187°
2026-05-03 20:54 35.57413 -86.77366 17014 ft 387 kts 187°
2026-05-03 20:55 35.54717 -86.77552 17581 ft 389 kts 187°
2026-05-03 20:55 35.52000 -86.77739 18140 ft 393 kts 187°
2026-05-03 20:55 35.49299 -86.77919 18687 ft 395 kts 187°
2026-05-03 20:55 35.46548 -86.78098 19230 ft 398 kts 187°
2026-05-03 20:56 35.43768 -86.78284 19772 ft 401 kts 187°
2026-05-03 20:56 35.40974 -86.78474 20304 ft 404 kts 187°
2026-05-03 20:56 35.38162 -86.78669 20832 ft 406 kts 188°
2026-05-03 20:56 35.35333 -86.78862 21318 ft 409 kts 188°
2026-05-03 20:57 35.32481 -86.79056 21782 ft 412 kts 188°
2026-05-03 20:57 35.29614 -86.79247 22234 ft 414 kts 188°
2026-05-03 20:57 35.26728 -86.79435 22691 ft 416 kts 188°
2026-05-03 20:57 35.23825 -86.79628 23131 ft 419 kts 188°
2026-05-03 20:58 35.20907 -86.79824 23563 ft 421 kts 188°
2026-05-03 20:58 35.17973 -86.80022 23979 ft 424 kts 188°
2026-05-03 20:58 35.15020 -86.80220 24394 ft 426 kts 188°
2026-05-03 20:58 35.12051 -86.80416 24806 ft 428 kts 188°
2026-05-03 20:59 35.09070 -86.80609 25197 ft 430 kts 188°
2026-05-03 20:59 35.06072 -86.80805 25591 ft 432 kts 188°
2026-05-03 20:59 35.03066 -86.81005 25979 ft 434 kts 188°
2026-05-03 20:59 35.00043 -86.81205 26354 ft 436 kts 188°
2026-05-03 21:00 34.97007 -86.81412 26751 ft 438 kts 188°
2026-05-03 21:00 34.94992 -86.81548 27008 ft 439 kts 188°
2026-05-03 21:00 34.90905 -86.81822 27514 ft 441 kts 188°
2026-05-03 21:00 34.87837 -86.82025 27888 ft 442 kts 188°
2026-05-03 21:01 34.84754 -86.82230 28244 ft 444 kts 188°
2026-05-03 21:01 34.81692 -86.82292 28585 ft 450 kts 182°
2026-05-03 21:01 34.78561 -86.81782 28921 ft 459 kts 173°
2026-05-03 21:01 34.75460 -86.80787 29239 ft 463 kts 170°
2026-05-03 21:02 34.72350 -86.79753 29564 ft 464 kts 170°
2026-05-03 21:02 34.69236 -86.78727 30019 ft 462 kts 170°
2026-05-03 21:02 34.66135 -86.77706 30488 ft 461 kts 171°
2026-05-03 21:02 34.63047 -86.76689 30938 ft 459 kts 171°
2026-05-03 21:03 34.59967 -86.75676 31385 ft 457 kts 171°
2026-05-03 21:03 34.56901 -86.74669 31832 ft 456 kts 172°
2026-05-03 21:03 34.53843 -86.73664 32264 ft 455 kts 172°
2026-05-03 21:03 34.50798 -86.72664 32708 ft 453 kts 172°
2026-05-03 21:04 34.47762 -86.71669 33138 ft 451 kts 172°
2026-05-03 21:04 34.44735 -86.70677 33564 ft 450 kts 173°
2026-05-03 21:04 34.41722 -86.69689 33977 ft 448 kts 173°
2026-05-03 21:04 34.38716 -86.68707 34413 ft 446 kts 173°
2026-05-03 21:05 34.35721 -86.67727 34798 ft 445 kts 173°
2026-05-03 21:05 34.32738 -86.66750 35186 ft 444 kts 173°
2026-05-03 21:05 34.29759 -86.65778 35525 ft 443 kts 174°
2026-05-03 21:05 34.26783 -86.64809 35860 ft 442 kts 174°
2026-05-03 21:06 34.23818 -86.63845 36219 ft 441 kts 174°
2026-05-03 21:06 34.20862 -86.62882 36532 ft 440 kts 174°
2026-05-03 21:06 34.17902 -86.61920 36802 ft 440 kts 174°
2026-05-03 21:06 34.14947 -86.60959 37079 ft 440 kts 174°
2026-05-03 21:07 34.09037 -86.59036 37177 ft 440 kts 174°
2026-05-03 21:07 34.03142 -86.57123 37177 ft 438 kts 174°
2026-05-03 21:08 33.97300 -86.55227 37178 ft 437 kts 175°
2026-05-03 21:08 33.91444 -86.53325 37174 ft 435 kts 175°
2026-05-03 21:09 33.85606 -86.51440 37179 ft 435 kts 175°
2026-05-03 21:09 33.79763 -86.49561 37178 ft 435 kts 175°
2026-05-03 21:10 33.73914 -86.47692 37187 ft 435 kts 175°
2026-05-03 21:10 33.68068 -86.45807 37189 ft 435 kts 175°
2026-05-03 21:11 33.62220 -86.43919 37196 ft 435 kts 175°
2026-05-03 21:11 33.56371 -86.42045 37196 ft 435 kts 175°
2026-05-03 21:12 33.50533 -86.40177 37192 ft 434 kts 175°
2026-05-03 21:12 33.44698 -86.38308 37194 ft 434 kts 175°
2026-05-03 21:13 33.38860 -86.36439 37195 ft 434 kts 175°
2026-05-03 21:13 33.33035 -86.34581 37194 ft 433 kts 175°
2026-05-03 21:14 33.27219 -86.32728 37195 ft 432 kts 175°
2026-05-03 21:14 33.21444 -86.30895 37196 ft 432 kts 174°
2026-05-03 21:15 33.15641 -86.29048 37198 ft 431 kts 173°
2026-05-03 21:15 33.09857 -86.27205 37199 ft 430 kts 174°
2026-05-03 21:16 33.04087 -86.25380 37196 ft 429 kts 174°
2026-05-03 21:16 32.98320 -86.23565 37184 ft 428 kts 174°
2026-05-03 21:17 32.93533 -86.22047 37185 ft 428 kts 174°
2026-05-03 21:17 32.86808 -86.19921 37186 ft 427 kts 174°
2026-05-03 21:18 32.81067 -86.18113 37182 ft 427 kts 174°
2026-05-03 21:18 32.75329 -86.16306 37186 ft 426 kts 174°
2026-05-03 21:19 32.69611 -86.14505 37188 ft 425 kts 175°
2026-05-03 21:19 32.63903 -86.12713 37183 ft 424 kts 175°
2026-05-03 21:20 32.58205 -86.10931 37175 ft 423 kts 175°
2026-05-03 21:20 32.52515 -86.09153 37174 ft 422 kts 175°
2026-05-03 21:21 32.46839 -86.07377 37161 ft 421 kts 175°
2026-05-03 21:21 32.41180 -86.05603 37163 ft 421 kts 175°
2026-05-03 21:22 32.35524 -86.03844 37158 ft 420 kts 176°
2026-05-03 21:22 32.29918 -86.02102 37158 ft 419 kts 176°
2026-05-03 21:23 32.24254 -86.00338 37158 ft 418 kts 176°
2026-05-03 21:23 32.18668 -85.98599 37153 ft 417 kts 176°
2026-05-03 21:24 32.13055 -85.96863 37158 ft 417 kts 176°
2026-05-03 21:24 32.07435 -85.95121 37160 ft 417 kts 176°
2026-05-03 21:25 32.01825 -85.93381 37166 ft 417 kts 176°
2026-05-03 21:25 31.97162 -85.91936 37165 ft 416 kts 176°
2026-05-03 21:26 31.91552 -85.90203 37165 ft 417 kts 176°
2026-05-03 21:26 31.85937 -85.88476 37168 ft 417 kts 176°
2026-05-03 21:27 31.80333 -85.86610 37170 ft 426 kts 169°
2026-05-03 21:27 31.77634 -85.85035 37164 ft 441 kts 159°
2026-05-03 21:27 31.75132 -85.82844 37170 ft 457 kts 148°
2026-05-03 21:28 31.70744 -85.77271 37159 ft 466 kts 142°
2026-05-03 21:28 31.66414 -85.71624 37153 ft 466 kts 143°
2026-05-03 21:29 31.62058 -85.65979 37144 ft 466 kts 143°
2026-05-03 21:29 31.57703 -85.60339 37145 ft 467 kts 143°
2026-05-03 21:30 31.53340 -85.54697 37145 ft 467 kts 143°
2026-05-03 21:30 31.48971 -85.49055 37146 ft 467 kts 143°
2026-05-03 21:31 31.44588 -85.43399 37150 ft 467 kts 143°
2026-05-03 21:31 31.40230 -85.37782 37156 ft 467 kts 143°
2026-05-03 21:32 31.35851 -85.32156 37159 ft 468 kts 143°
2026-05-03 21:32 31.31466 -85.26536 37159 ft 468 kts 144°
2026-05-03 21:33 31.27080 -85.20912 37156 ft 468 kts 144°
2026-05-03 21:33 31.22686 -85.15280 37159 ft 469 kts 144°
2026-05-03 21:34 31.18287 -85.09661 37159 ft 468 kts 144°
2026-05-03 21:34 31.13891 -85.04044 37152 ft 469 kts 144°
2026-05-03 21:35 31.09493 -84.98425 37149 ft 469 kts 144°
2026-05-03 21:35 31.05088 -84.92819 37149 ft 469 kts 144°
2026-05-03 21:36 31.00679 -84.87215 37147 ft 469 kts 144°
2026-05-03 21:36 30.96294 -84.81645 37148 ft 469 kts 144°
2026-05-03 21:37 30.91884 -84.76052 37146 ft 469 kts 144°
2026-05-03 21:37 30.87464 -84.70468 37145 ft 469 kts 145°
2026-05-03 21:38 30.83040 -84.64888 37141 ft 469 kts 145°
2026-05-03 21:38 30.78612 -84.59304 37146 ft 469 kts 145°
2026-05-03 21:39 30.74183 -84.53720 37152 ft 470 kts 145°
2026-05-03 21:39 30.69756 -84.48146 37153 ft 469 kts 145°
2026-05-03 21:40 30.65321 -84.42580 37153 ft 470 kts 145°
2026-05-03 21:40 30.60884 -84.37010 37152 ft 470 kts 145°
2026-05-03 21:41 30.56443 -84.31441 37151 ft 470 kts 146°
2026-05-03 21:41 30.51991 -84.25876 37152 ft 471 kts 146°
2026-05-03 21:42 30.47535 -84.20314 37150 ft 471 kts 146°
2026-05-03 21:42 30.43078 -84.14758 37155 ft 470 kts 146°
2026-05-03 21:43 30.38592 -84.09273 37148 ft 462 kts 151°
2026-05-03 21:43 30.36152 -84.06957 37147 ft 447 kts 159°
2026-05-03 21:43 30.33593 -84.05111 37145 ft 435 kts 164°
2026-05-03 21:44 30.28332 -84.01641 37142 ft 436 kts 164°
2026-05-03 21:44 30.23076 -83.98156 37141 ft 436 kts 164°
2026-05-03 21:45 30.17815 -83.94668 37136 ft 436 kts 164°
2026-05-03 21:45 30.12550 -83.91181 37133 ft 436 kts 164°
2026-05-03 21:46 30.07286 -83.87696 37133 ft 436 kts 164°
2026-05-03 21:46 30.02028 -83.84220 37131 ft 436 kts 164°
2026-05-03 21:47 29.96754 -83.80737 37127 ft 436 kts 164°
2026-05-03 21:47 29.91481 -83.77263 37126 ft 436 kts 164°
2026-05-03 21:48 29.86213 -83.73803 37124 ft 436 kts 164°
2026-05-03 21:48 29.80983 -83.70370 37124 ft 436 kts 164°
2026-05-03 21:49 29.75709 -83.66910 37117 ft 436 kts 164°
2026-05-03 21:49 29.70433 -83.63449 37114 ft 437 kts 164°
2026-05-03 21:50 29.65145 -83.59980 37121 ft 438 kts 164°
2026-05-03 21:50 29.59858 -83.56526 37124 ft 437 kts 164°
2026-05-03 21:51 29.54561 -83.53071 37118 ft 438 kts 164°
2026-05-03 21:51 29.49259 -83.49616 37117 ft 438 kts 165°
2026-05-03 21:52 29.43962 -83.46169 37115 ft 438 kts 164°
2026-05-03 21:52 29.38667 -83.42723 37113 ft 437 kts 165°
2026-05-03 21:53 29.33372 -83.39283 37113 ft 438 kts 165°
2026-05-03 21:53 29.28072 -83.35842 37117 ft 438 kts 165°
2026-05-03 21:54 29.22773 -83.32399 37114 ft 439 kts 164°
2026-05-03 21:54 29.17477 -83.28917 37115 ft 439 kts 164°
2026-05-03 21:55 29.12183 -83.25424 37115 ft 439 kts 164°
2026-05-03 21:55 29.06922 -83.21967 37113 ft 438 kts 164°
2026-05-03 21:56 29.01630 -83.18506 37115 ft 439 kts 164°
2026-05-03 21:56 28.96330 -83.15047 37108 ft 439 kts 164°
2026-05-03 21:57 28.91031 -83.11576 37105 ft 439 kts 164°
2026-05-03 21:57 28.85722 -83.08115 37103 ft 440 kts 164°
2026-05-03 21:58 28.80408 -83.04652 37097 ft 440 kts 164°
2026-05-03 21:58 28.75086 -83.01187 37096 ft 441 kts 164°
2026-05-03 21:59 28.69755 -82.97719 37105 ft 441 kts 164°
2026-05-03 21:59 28.64428 -82.94249 37095 ft 441 kts 164°
2026-05-03 22:00 28.59097 -82.90792 37099 ft 441 kts 164°
2026-05-03 22:00 28.53764 -82.87336 37095 ft 441 kts 164°
2026-05-03 22:01 28.48428 -82.83882 37095 ft 441 kts 164°
2026-05-03 22:01 28.43088 -82.80431 37095 ft 441 kts 164°
2026-05-03 22:02 28.37783 -82.77004 37090 ft 442 kts 164°
2026-05-03 22:02 28.32436 -82.73556 37089 ft 442 kts 164°
2026-05-03 22:03 28.27084 -82.70108 37084 ft 443 kts 164°
2026-05-03 22:03 28.21721 -82.66656 37086 ft 443 kts 164°
2026-05-03 22:04 28.17151 -82.63718 37086 ft 443 kts 164°
2026-05-03 22:04 28.11787 -82.60276 37090 ft 443 kts 164°
2026-05-03 22:05 28.06420 -82.56835 37084 ft 443 kts 164°
2026-05-03 22:05 28.01049 -82.53416 37082 ft 439 kts 167°
2026-05-03 22:06 27.98299 -82.52082 37078 ft 424 kts 175°
2026-05-03 22:06 27.95505 -82.51083 37071 ft 421 kts 176°
2026-05-03 22:06 27.89906 -82.49108 37063 ft 422 kts 176°
2026-05-03 22:07 27.84293 -82.47119 37060 ft 423 kts 176°
2026-05-03 22:07 27.78678 -82.45127 37059 ft 423 kts 175°
2026-05-03 22:08 27.73053 -82.43129 37060 ft 423 kts 175°
2026-05-03 22:08 27.67428 -82.41134 37059 ft 424 kts 175°
2026-05-03 22:09 27.61794 -82.39147 37055 ft 425 kts 175°
2026-05-03 22:10 27.53321 -82.36160 37061 ft 425 kts 175°
2026-05-03 22:10 27.47670 -82.34168 37057 ft 426 kts 175°
2026-05-03 22:11 27.42006 -82.32174 37057 ft 426 kts 175°
2026-05-03 22:11 27.39173 -82.31165 36872 ft 430 kts 173°
2026-05-03 22:11 27.36384 -82.29818 36623 ft 444 kts 164°
2026-05-03 22:11 27.33672 -82.28110 36372 ft 447 kts 163°
2026-05-03 22:12 27.30960 -82.26378 36123 ft 449 kts 163°
2026-05-03 22:12 27.28244 -82.24643 35872 ft 450 kts 163°
2026-05-03 22:12 27.25510 -82.22899 35622 ft 453 kts 163°
2026-05-03 22:12 27.22755 -82.21151 35375 ft 456 kts 162°
2026-05-03 22:13 27.19984 -82.19402 35123 ft 459 kts 162°
2026-05-03 22:13 27.17194 -82.17640 34872 ft 460 kts 162°
2026-05-03 22:13 27.14402 -82.15873 34624 ft 462 kts 162°
2026-05-03 22:13 27.11637 -82.14122 34376 ft 463 kts 162°
2026-05-03 22:14 27.08830 -82.12345 34127 ft 463 kts 162°
2026-05-03 22:14 27.06026 -82.10568 33878 ft 464 kts 162°
2026-05-03 22:14 27.03218 -82.08787 33418 ft 463 kts 161°
2026-05-03 22:14 27.00404 -82.07006 32534 ft 467 kts 161°
2026-05-03 22:15 26.97568 -82.05144 31502 ft 480 kts 155°
2026-05-03 22:15 26.94901 -82.02795 30606 ft 496 kts 144°
2026-05-03 22:15 26.92513 -82.00007 30059 ft 495 kts 140°
2026-05-03 22:15 26.90927 -81.98108 29604 ft 493 kts 140°
2026-05-03 22:16 26.88584 -81.95323 28955 ft 489 kts 141°
2026-05-03 22:16 26.86254 -81.92572 28347 ft 484 kts 141°
2026-05-03 22:16 26.83950 -81.89864 28069 ft 480 kts 141°
2026-05-03 22:16 26.81647 -81.87164 27527 ft 477 kts 140°
2026-05-03 22:17 26.79398 -81.84529 26980 ft 473 kts 140°
2026-05-03 22:17 26.77108 -81.81838 26426 ft 469 kts 140°
2026-05-03 22:17 26.74868 -81.79211 25873 ft 465 kts 140°
2026-05-03 22:17 26.72664 -81.76638 25341 ft 462 kts 140°
2026-05-03 22:18 26.70452 -81.74066 24808 ft 458 kts 140°
2026-05-03 22:18 26.68247 -81.71506 24275 ft 455 kts 140°
2026-05-03 22:18 26.66060 -81.68971 23753 ft 451 kts 140°
2026-05-03 22:18 26.63888 -81.66452 23230 ft 448 kts 139°
2026-05-03 22:19 26.61899 -81.63766 22681 ft 449 kts 133°
2026-05-03 22:19 26.60029 -81.60981 22070 ft 446 kts 132°
2026-05-03 22:19 26.58152 -81.58182 21475 ft 442 kts 132°
2026-05-03 22:19 26.56340 -81.55479 20906 ft 439 kts 132°
2026-05-03 22:20 26.54494 -81.52728 20325 ft 435 kts 132°
2026-05-03 22:20 26.52703 -81.50065 19758 ft 432 kts 132°
2026-05-03 22:20 26.50904 -81.47397 19190 ft 429 kts 132°
2026-05-03 22:20 26.49115 -81.44747 18622 ft 426 kts 132°
2026-05-03 22:21 26.47340 -81.42118 18059 ft 422 kts 132°
2026-05-03 22:21 26.45576 -81.39509 17491 ft 419 kts 132°
2026-05-03 22:21 26.43829 -81.36930 16939 ft 415 kts 132°
2026-05-03 22:21 26.42097 -81.34373 16409 ft 411 kts 131°
2026-05-03 22:22 26.40373 -81.31854 15865 ft 406 kts 133°
2026-05-03 22:22 26.38613 -81.29419 15341 ft 400 kts 134°
2026-05-03 22:22 26.36839 -81.27057 14810 ft 395 kts 135°
2026-05-03 22:22 26.35070 -81.24736 14294 ft 390 kts 135°
2026-05-03 22:23 26.33320 -81.22447 13883 ft 384 kts 134°
2026-05-03 22:23 26.31630 -81.20222 13750 ft 368 kts 134°
2026-05-03 22:23 26.30014 -81.18079 13624 ft 355 kts 134°
2026-05-03 22:23 26.28460 -81.16006 13494 ft 343 kts 134°
2026-05-03 22:24 26.26949 -81.13999 13368 ft 333 kts 135°
2026-05-03 22:24 26.25476 -81.12056 13186 ft 325 kts 135°
2026-05-03 22:24 26.24021 -81.10149 12888 ft 322 kts 135°
2026-05-03 22:24 26.22577 -81.08261 12533 ft 318 kts 135°
2026-05-03 22:25 26.21156 -81.06394 11929 ft 315 kts 135°
2026-05-03 22:25 26.19746 -81.04542 11328 ft 312 kts 134°
2026-05-03 22:25 26.18342 -81.02701 10935 ft 311 kts 134°
2026-05-03 22:25 26.16952 -81.00876 10638 ft 308 kts 134°
2026-05-03 22:26 26.15616 -80.99028 10327 ft 307 kts 127°
2026-05-03 22:26 26.14647 -80.96909 10066 ft 310 kts 112°
2026-05-03 22:26 26.14131 -80.94561 9585 ft 314 kts 102°
2026-05-03 22:26 26.13748 -80.92190 9175 ft 309 kts 102°
2026-05-03 22:27 26.13369 -80.89859 8777 ft 304 kts 102°
2026-05-03 22:27 26.12989 -80.87547 8386 ft 304 kts 102°
2026-05-03 22:27 26.12604 -80.85234 8038 ft 301 kts 102°
2026-05-03 22:27 26.12225 -80.82963 7608 ft 297 kts 102°
2026-05-03 22:28 26.11849 -80.80717 7223 ft 295 kts 102°
2026-05-03 22:28 26.11476 -80.78492 7035 ft 289 kts 102°
2026-05-03 22:28 26.11113 -80.76329 6904 ft 278 kts 102°
2026-05-03 22:28 26.10769 -80.74271 6778 ft 264 kts 102°
2026-05-03 22:29 26.10445 -80.72319 6652 ft 249 kts 102°
2026-05-03 22:29 26.10138 -80.70478 6530 ft 235 kts 102°
2026-05-03 22:29 26.09846 -80.68734 6403 ft 224 kts 102°
2026-05-03 22:29 26.09563 -80.67070 6206 ft 220 kts 103°
2026-05-03 22:30 26.09280 -80.65409 6053 ft 218 kts 102°
2026-05-03 22:30 26.08999 -80.63756 5928 ft 217 kts 102°
2026-05-03 22:30 26.08720 -80.62110 5812 ft 217 kts 102°
2026-05-03 22:30 26.08441 -80.60463 5698 ft 216 kts 102°
2026-05-03 22:31 26.08163 -80.58822 5585 ft 216 kts 102°
2026-05-03 22:31 26.07888 -80.57200 5488 ft 208 kts 102°
2026-05-03 22:31 26.07625 -80.55643 5366 ft 204 kts 102°
2026-05-03 22:31 26.07363 -80.54095 5257 ft 204 kts 102°
2026-05-03 22:32 26.07101 -80.52547 5150 ft 203 kts 102°
2026-05-03 22:32 26.06842 -80.51005 5060 ft 203 kts 101°
2026-05-03 22:32 26.06741 -80.49438 5005 ft 203 kts 90°
2026-05-03 22:32 26.06742 -80.47871 4989 ft 204 kts 91°
2026-05-03 22:33 26.06737 -80.46293 4713 ft 203 kts 91°
2026-05-03 22:33 26.06730 -80.44735 4527 ft 201 kts 91°
2026-05-03 22:33 26.06723 -80.43188 4380 ft 200 kts 90°
2026-05-03 22:33 26.06716 -80.41646 4241 ft 199 kts 90°
2026-05-03 22:34 26.06710 -80.40113 4106 ft 198 kts 90°
2026-05-03 22:34 26.06703 -80.38584 3943 ft 197 kts 90°
2026-05-03 22:34 26.06695 -80.37067 3715 ft 196 kts 90°
2026-05-03 22:34 26.06687 -80.35558 3454 ft 194 kts 90°
2026-05-03 22:35 26.06680 -80.34062 3200 ft 193 kts 90°
2026-05-03 22:35 26.06674 -80.32575 2946 ft 191 kts 89°
2026-05-03 22:35 26.06667 -80.31103 2690 ft 190 kts 89°
2026-05-03 22:35 26.06660 -80.29638 2438 ft 189 kts 89°
2026-05-03 22:36 26.06653 -80.28182 2189 ft 188 kts 88°
2026-05-03 22:36 26.06646 -80.26726 1941 ft 187 kts 88°
2026-05-03 22:36 26.06639 -80.25312 1707 ft 175 kts 88°
2026-05-03 22:36 26.06631 -80.24031 1489 ft 157 kts 88°
2026-05-03 22:37 26.06625 -80.22861 1278 ft 146 kts 85°
2026-05-03 22:37 26.06620 -80.21732 1079 ft 145 kts 88°
2026-05-03 22:37 26.06614 -80.20617 891 ft 144 kts 88°
2026-05-03 22:37 26.06610 -80.19506 696 ft 143 kts 88°
2026-05-03 22:38 26.06604 -80.18403 523 ft 143 kts 88°
2026-05-03 22:38 26.06597 -80.17298 323 ft 142 kts 89°
2026-05-03 22:38 26.06590 -80.16203 138 ft 142 kts 89°
2026-05-03 22:38 26.06586 -80.15131 39 ft 126 kts 90°
2026-05-03 22:39 26.06581 -80.14346 48 ft 73 kts 90°
2026-05-03 22:39 26.06578 -80.13967 61 ft 39 kts 90°
2026-05-03 22:39 26.06640 -80.13768 68 ft 22 kts 44°
2026-05-03 22:39 26.06723 -80.13729 65 ft 10 kts 337°
2026-05-03 22:40 26.06743 -80.13813 61 ft 13 kts 270°
2026-05-03 22:40 26.06743 -80.13924 55 ft 13 kts 271°
2026-05-03 22:40 26.06724 -80.14035 58 ft 18 kts 238°
2026-05-03 22:40 26.06689 -80.14153 54 ft 13 kts 270°
2026-05-03 22:41 26.06690 -80.14255 51 ft 16 kts 270°
2026-05-03 22:41 26.06691 -80.14366 48 ft 15 kts 270°
2026-05-03 22:41 26.06691 -80.14493 45 ft 18 kts 270°
2026-05-03 22:41 26.06692 -80.14623 42 ft 16 kts 270°
2026-05-03 22:42 26.06693 -80.14755 41 ft 18 kts 270°
2026-05-03 22:42 26.06694 -80.14876 40 ft 13 kts 271°
2026-05-03 22:42 26.06743 -80.14920 39 ft 12 kts 18°
2026-05-03 22:42 26.06767 -80.14832 40 ft 14 kts 90°
2026-05-03 22:43 26.06766 -80.14712 39 ft 17 kts 91°
2026-05-03 22:43 26.06766 -80.14584 39 ft 17 kts 92°
2026-05-03 22:43 26.06752 -80.14451 43 ft 17 kts 92°
2026-05-03 22:43 26.06751 -80.14326 47 ft 14 kts 88°
2026-05-03 22:44 26.06757 -80.14217 47 ft 14 kts 86°